Flag for U.S.A. Weather past 2 weeks in Menominee, Michigan, U.S.A.

Now
16 °F

Sunny.


Feels Like: 4 °F
Forecast: 0 / 13 °F
Wind: 9 mph from Northwest

Location: Menominee Weather Reporting Station

Current Time: Mar 4, 2015 at 1:48:01 PM

Latest Report: Mar 4, 2015 at 1:15 PM


Visibility: 10 mi

Pressure: 30.03 "Hg

Humidity: 31%

Dew point: -9 °F

Location of MenomineeLocation

Historic Weather in Menominee — Graph

°F

Menominee temperature yesterday

Maximum temperature yesterday: 30 °F (at 3:55 PM)
Minimum temperature yesterday: 21 °F (at 12:15 AM)
Average temperature yesterday: 26 °F

Past Weeks' High & Low Weather Summary

 TemperatureHumidityPressure
High32 °F (Feb 24, 2:35 PM)93% (Feb 21, 7:15 PM)30.64 "Hg (Feb 21, 7:15 PM)
Low-15 °F (Feb 19, 7:15 AM)24% (Feb 24, 4:35 PM)29.43 "Hg (Feb 24, 2:35 PM)
Average9 °F62%30.15 "Hg
* Reported Feb 17 12:15 PM — Mar 4 12:35 PM, Menominee, Weather by CustomWeather, © 2015

Note: Actual official high and low records may vary slightly from our data, if they occured in-between our weather recording intervals... More about our weather records

Advertising

Menominee weather history for previous 24 hours

 ConditionsComfort  
Time TempWeatherWind HumidityBarometerVisibility
12:35 PM
Wed, Mar 4
14 °FSunny.9 mph37%30.04 "Hg10 mi
12:15 PM12 °FSunny.13 mph40%30.05 "Hg10 mi
11:55 AM12 °FSunny.7 mph40%30.05 "Hg10 mi
11:35 AM12 °FSunny.8 mph40%30.04 "Hg10 mi
10:55 AM10 °FSunny.12 mph44%30.02 "Hg10 mi
10:35 AM10 °FSunny.14 mph44%30.02 "Hg10 mi
10:15 AM10 °FSunny.12 mph44%30.02 "Hg10 mi
9:55 AM10 °FSunny.12 mph44%30.01 "Hg10 mi
9:35 AM10 °FSunny.7 mph44%30.01 "Hg10 mi
9:15 AM9 °FSunny.17 mph51%30.01 "Hg10 mi
8:55 AM9 °FSunny.14 mph56%30.01 "Hg10 mi
8:35 AM9 °FSunny.9 mph51%30.01 "Hg10 mi
8:15 AM9 °FSunny.9 mph56%30.00 "Hg10 mi
7:55 AM9 °FSunny.8 mph56%29.98 "Hg10 mi
7:35 AM9 °FSunny.9 mph56%29.97 "Hg10 mi
7:15 AM9 °FSunny.8 mph51%29.96 "Hg10 mi
6:55 AM9 °FSunny.8 mph51%29.95 "Hg10 mi
6:35 AM9 °FSunny.9 mph51%29.94 "Hg10 mi
6:15 AM9 °FSunny.9 mph51%29.93 "Hg10 mi
5:55 AM9 °FSunny.13 mph61%29.92 "Hg10 mi
5:35 AM10 °FSunny.10 mph61%29.92 "Hg10 mi
5:15 AM10 °FClear.8 mph61%29.91 "Hg10 mi
4:55 AM12 °FClear.7 mph57%29.90 "Hg10 mi
4:35 AM12 °FClear.9 mph57%29.88 "Hg10 mi
4:15 AM12 °FClear.7 mph62%29.87 "Hg10 mi
3:55 AM12 °FClear.7 mph62%29.86 "Hg10 mi
3:35 AM14 °FClear.9 mph57%29.85 "Hg10 mi
3:15 AM16 °FClear.8 mph53%29.84 "Hg10 mi
2:55 AM16 °FClear.13 mph53%29.83 "Hg10 mi
2:35 AM16 °FClear.10 mph53%29.81 "Hg10 mi
2:15 AM18 °FClear.14 mph49%29.81 "Hg10 mi
1:55 AM18 °FClear.8 mph49%29.81 "Hg10 mi
1:35 AM18 °FClear.9 mph62%29.81 "Hg10 mi
1:15 AM19 °FClear.3 mph58%29.79 "Hg10 mi
12:55 AM19 °FClear.5 mph63%29.78 "Hg10 mi
12:35 AM19 °FClear.5 mph63%29.77 "Hg10 mi
12:15 AM21 °FClear.6 mph58%29.76 "Hg10 mi
11:55 PM
Tue, Mar 3
21 °FClear.7 mph63%29.75 "Hg10 mi
11:35 PM25 °FPassing clouds.6 mph59%29.74 "Hg10 mi
11:15 PM25 °FPassing clouds.8 mph63%29.73 "Hg10 mi
10:55 PM27 °FPassing clouds.9 mph54%29.72 "Hg10 mi
10:35 PM27 °FOvercast.7 mph64%29.71 "Hg10 mi
10:15 PM27 °FPassing clouds.9 mph64%29.71 "Hg10 mi
9:55 PM27 °FPassing clouds.5 mph64%29.70 "Hg10 mi
9:15 PM27 °FPassing clouds.6 mph64%29.69 "Hg10 mi
8:55 PM28 °FPassing clouds.5 mph64%29.68 "Hg10 mi
8:35 PM28 °FOvercast.7 mph64%29.66 "Hg10 mi
8:15 PM28 °FOvercast.6 mph64%29.65 "Hg10 mi
7:55 PM28 °FPassing clouds.5 mph64%29.63 "Hg10 mi
7:35 PM28 °FMostly cloudy.3 mph64%29.63 "Hg10 mi
7:15 PM28 °FOvercast.3 mph69%29.61 "Hg10 mi
6:55 PM28 °FOvercast.6 mph64%29.61 "Hg10 mi
6:35 PM28 °FOvercast.6 mph64%29.60 "Hg10 mi
6:15 PM28 °FOvercast.5 mph64%29.59 "Hg10 mi
5:55 PM28 °FOvercast.6 mph64%29.58 "Hg10 mi
5:35 PM28 °FOvercast.7 mph64%29.56 "Hg10 mi
5:15 PM28 °FOvercast.6 mph64%29.56 "Hg10 mi
4:55 PM28 °FOvercast.8 mph64%29.53 "Hg10 mi
4:35 PM28 °FPartly sunny.8 mph64%29.53 "Hg10 mi
4:15 PM30 °FBroken clouds.6 mph59%29.52 "Hg10 mi
3:55 PM30 °FMostly cloudy.10 mph64%29.53 "Hg10 mi
3:35 PM28 °FPartly sunny.9 mph69%29.52 "Hg10 mi
3:15 PM28 °FCloudy.8 mph69%29.52 "Hg10 mi
2:55 PM28 °FPartly sunny.12 mph74%29.51 "Hg10 mi
2:35 PM28 °FMore clouds than sun.10 mph74%29.51 "Hg10 mi
2:15 PM28 °FBroken clouds.7 mph80%29.52 "Hg10 mi
1:55 PM28 °FMore clouds than sun.8 mph86%29.52 "Hg7 mi
1:35 PM28 °FCloudy.6 mph86%29.52 "Hg2 mi
1:15 PM28 °FCloudy.8 mph93%29.54 "Hg3 mi
Weather by CustomWeather, © 2015

See weather overviewHow to use our weather pages